Location: Peterborough
(44.3091°N, 78.3197°W)
Time: 19:39:12
(UTC-05:00)

Vanguard 2 - Visible Passes

Search period start: 03 December 2023 00:00
Search period end: 13 December 2023 00:00
Orbit: 552 x 2923 km, 32.9° (Epoch: 03 December)

Date Brightness Start Highest point End Pass type
(mag) Time Alt. Az. Time Alt. Az. Time Alt. Az.
03 Dec 11.4 18:22:11 10° SSE 18:29:07 13° SE 18:34:45 11° ESE visible
03 Dec 10.9 20:24:38 10° SSW 20:36:00 31° S 20:36:00 31° S visible
03 Dec 11.5 22:34:09 10° WSW 22:37:14 17° SW 22:37:14 17° SW visible
04 Dec 11.2 18:33:54 10° S 18:44:16 19° SE 18:49:34 16° ESE visible
04 Dec 10.8 20:39:08 10° SW 20:50:48 35° S 20:50:48 35° S visible
04 Dec 11.6 22:49:26 10° WSW 22:52:02 16° WSW 22:52:02 16° WSW visible
05 Dec 11.0 18:46:59 10° S 18:59:26 24° SE 19:04:20 21° ESE visible
05 Dec 10.7 20:53:53 10° SW 21:05:34 38° S 21:05:34 38° S visible
05 Dec 11.7 23:04:51 10° WSW 23:06:48 15° WSW 23:06:48 15° WSW visible
06 Dec 10.9 19:00:46 10° SSW 19:14:37 30° SSE 19:19:05 27° SE visible
06 Dec 10.7 21:08:52 10° SW 21:20:18 40° SSW 21:20:18 40° SSW visible
06 Dec 11.7 23:20:21 10° WSW 23:21:32 13° WSW 23:21:32 13° WSW visible
07 Dec 11.5 17:12:31 10° SSE 17:20:14 15° SE 17:28:02 10° ESE visible
07 Dec 10.7 19:14:59 10° SSW 19:29:51 35° SSE 19:33:47 32° SE visible
07 Dec 10.8 21:24:02 10° WSW 21:35:01 40° SW 21:35:01 40° SW visible
07 Dec 11.8 23:35:55 10° W 23:36:15 11° W 23:36:15 11° W visible
08 Dec 11.4 17:24:42 10° S 17:35:12 20° SE 17:45:55 10° E visible
08 Dec 10.6 19:29:33 10° SW 19:45:08 41° SSE 19:48:28 38° SE visible
08 Dec 10.8 21:39:19 10° WSW 21:49:41 39° SW 21:49:41 39° SW visible
09 Dec 11.2 17:38:00 10° S 17:50:12 25° SE 18:01:52 12° E visible
09 Dec 10.5 19:44:22 10° SW 20:00:28 46° SSE 20:03:06 43° SE visible
09 Dec 10.9 21:54:44 10° WSW 22:04:19 37° SW 22:04:19 37° SW visible
10 Dec 11.1 17:51:55 10° SSW 18:05:15 31° SE 18:16:29 16° E visible
10 Dec 10.4 19:59:22 10° SW 20:15:50 50° SSE 20:17:42 49° SSE visible
10 Dec 11.0 22:10:13 10° WSW 22:18:55 34° WSW 22:18:55 34° WSW visible
11 Dec 10.9 18:06:15 10° SSW 18:20:21 36° SSE 18:31:04 20° ESE visible
11 Dec 10.3 20:14:33 10° WSW 20:31:15 53° S 20:32:17 53° SSE visible
11 Dec 11.1 22:25:46 10° W 22:33:30 30° WSW 22:33:30 30° WSW visible
12 Dec 10.8 18:20:52 10° SW 18:35:32 42° SSE 18:45:37 24° ESE visible
12 Dec 10.3 20:29:50 10° WSW 20:46:42 55° S 20:46:50 55° S visible
12 Dec 11.3 22:41:23 10° W 22:48:03 27° WSW 22:48:03 27° WSW visible
